Satellite-Ground Cal/Val Region Overpasses Predictions

Prediction of Satellite NPP Overpassing Cal/Val Region: PacNW

Region Location: (Latitude: 10.00, Longitude: 139.50) to (Latitude: 22.70, Longitude: 165.60).

Table of predicted overpasses for the next 14.0 days since TLE Epoch: 2/7/2020
Interval Starting Time Starting Location Ending Time Ending Location
1 02/08/2020 03:16:50 ( 10.03, 150.42) 02/08/2020 03:20:25 ( 22.65, 147.42)
2 02/08/2020 15:48:44 ( 22.65, 147.65) 02/08/2020 15:52:19 ( 10.03, 144.64)
3 02/09/2020 02:57:49 ( 10.03, 155.18) 02/09/2020 03:01:24 ( 22.65, 152.17)
4 02/09/2020 15:29:43 ( 22.65, 152.40) 02/09/2020 15:33:18 ( 10.03, 149.40)
5 02/10/2020 02:38:47 ( 10.03, 159.93) 02/10/2020 02:42:22 ( 22.65, 156.93)
6 02/10/2020 15:10:41 ( 22.65, 157.16) 02/10/2020 15:14:16 ( 10.03, 154.16)
7 02/11/2020 02:19:46 ( 10.03, 164.69) 02/11/2020 02:23:21 ( 22.65, 161.69)
8 02/11/2020 14:51:40 ( 22.65, 161.91) 02/11/2020 14:55:15 ( 10.03, 158.91)
9 02/12/2020 03:42:14 ( 10.03, 144.07) 02/12/2020 03:45:49 ( 22.66, 141.06)
10 02/12/2020 14:33:53 ( 18.25, 165.59) 02/12/2020 14:36:13 ( 10.03, 163.67)
11 02/12/2020 16:14:08 ( 22.65, 141.29) 02/12/2020 16:16:14 ( 15.25, 139.50)
12 02/13/2020 03:23:13 ( 10.04, 148.82) 02/13/2020 03:26:48 ( 22.66, 145.82)
13 02/13/2020 15:55:07 ( 22.64, 146.05) 02/13/2020 15:58:42 ( 10.02, 143.05)
14 02/14/2020 03:04:12 ( 10.04, 153.58) 02/14/2020 03:07:47 ( 22.66, 150.58)
15 02/14/2020 15:36:05 ( 22.64, 150.80) 02/14/2020 15:39:40 ( 10.02, 147.80)
16 02/15/2020 02:45:10 ( 10.04, 158.33) 02/15/2020 02:48:45 ( 22.66, 155.33)
17 02/15/2020 15:17:04 ( 22.64, 155.56) 02/15/2020 15:20:39 ( 10.02, 152.56)
18 02/16/2020 02:26:09 ( 10.04, 163.09) 02/16/2020 02:29:44 ( 22.66, 160.09)
19 02/16/2020 14:58:01 ( 22.70, 160.33) 02/16/2020 15:01:37 ( 10.02, 157.31)
20 02/17/2020 02:09:50 ( 19.62, 165.59) 02/17/2020 02:10:42 ( 22.66, 164.84)
21 02/17/2020 03:48:37 ( 10.05, 142.47) 02/17/2020 03:52:09 ( 22.49, 139.51)
22 02/17/2020 14:39:00 ( 22.70, 165.08) 02/17/2020 14:42:36 ( 10.02, 162.07)
23 02/17/2020 16:20:30 ( 22.69, 139.71) 02/17/2020 16:20:44 ( 21.87, 139.50)
24 02/18/2020 03:29:36 ( 10.05, 147.22) 02/18/2020 03:33:11 ( 22.67, 144.22)
25 02/18/2020 16:01:28 ( 22.69, 144.46) 02/18/2020 16:05:04 ( 10.01, 141.45)
26 02/19/2020 03:10:34 ( 10.05, 151.98) 02/19/2020 03:14:09 ( 22.67, 148.98)
27 02/19/2020 15:42:27 ( 22.69, 149.22) 02/19/2020 15:46:03 ( 10.01, 146.20)
28 02/20/2020 02:51:33 ( 10.05, 156.73) 02/20/2020 02:55:08 ( 22.68, 153.73)
29 02/20/2020 15:23:25 ( 22.69, 153.97) 02/20/2020 15:27:01 ( 10.01, 150.96)
30 02/21/2020 02:32:31 ( 10.06, 161.49) 02/21/2020 02:36:06 ( 22.68, 158.49)


NCC Satellite Cal/Val Overpasses Prediction Service
